This is the latest recevied weather packets stored in our database for station/object KB5SJ. If no packets are shown the sender has not sent any weather packets the latest 10 day(s).
| Time | Temp. | Humidity | Pressure | Rain* | Wind** | Luminosity | Snow |
|---|---|---|---|---|---|---|---|
| 1777681216 | 15° C | 99% | 1011.4 hPa | 3.81 mm | - | - | - |
| 1777680016 | 15° C | 99% | 1011.5 hPa | 3.81 mm | - | - | - |
| 1777677616 | 15° C | 99% | 1010.7 hPa | 1.02 mm | - | - | - |
| 1777676416 | 15° C | 99% | 1010.2 hPa | 2.03 mm | - | - | - |
| 1777670117 | 15.56° C | 99% | 1009.4 hPa | 3.3 mm | - | - | - |
| 1777669517 | 15.56° C | 99% | 1010.7 hPa | 3.05 mm | - | - | - |
| 1777668917 | 15.56° C | 99% | 1010 hPa | 2.54 mm | - | - | - |
| 1777662937 | 16.11° C | 99% | 1009.2 hPa | 1.78 mm | - | - | - |
| 1777662317 | 16.11° C | 99% | 1009 hPa | 1.27 mm | - | - | - |
| 1777659317 | 16.67° C | 99% | 1009 hPa | 0.51 mm | - | - | - |
| 1777651517 | 16.67° C | 99% | 1012.2 hPa | 1.02 mm | - | - | - |
| 1777648517 | 16.67° C | 99% | 1012.1 hPa | 7.11 mm | - | - | - |
| 1777645537 | 16.11° C | 99% | 1012.1 hPa | 12.19 mm | - | - | - |
| 1777643717 | 16.67° C | 99% | 1012.2 hPa | 17.53 mm | - | - | - |
| 1777642217 | 16.67° C | 99% | 1012.3 hPa | 16.51 mm | - | - | - |
| 1777639217 | 17.22° C | 99% | 1010.7 hPa | 10.41 mm | - | - | - |
| 1777628117 | 18.33° C | 98% | 1010.4 hPa | 4.57 mm | - | - | - |
| 1777627517 | 18.33° C | 98% | 1010 hPa | 4.32 mm | - | - | - |
| 1777626917 | 18.33° C | 98% | 1010.7 hPa | 3.56 mm | - | - | - |
| 1777624517 | 18.33° C | 98% | 1009.5 hPa | 1.02 mm | - | - | - |
| 1777621516 | 18.89° C | 98% | 1010.7 hPa | 0 mm | - | - | - |
| 1777619717 | 18.89° C | 98% | 1009.6 hPa | 0.25 mm | - | - | - |
| 1777619116 | 18.89° C | 98% | 1010.9 hPa | 0.25 mm | - | - | - |
| 1777616117 | 18.89° C | 97% | 1011.6 hPa | 2.03 mm | - | - | - |
| 1777610716 | 19.44° C | 96% | 1009.4 hPa | 0 mm | - | - | - |
* Rain latest hour (hover to see other rain measurements)
** Current wind speed in m/s (hover to see current wind gust speed)